Regional Weather Roundup
Issued by NWS Little Rock, AR

Home | Current Version | Previous Version | Graphics & Text | Print | Product List | Glossary On
Versions: 1 2 3 4 5 6 7 8 9 10 11 12 13 14 15 16 17 18 19 20 21 22 23 24 25 26 27 28 29 30 31 32 33 34 35 36 37 38 39 40 41 42 43 44 45 46 47 48 49 50
000
ASUS44 KLZK 232205
RWRLZK

WEATHER ROUNDUP FOR ARKANSAS
NATIONAL WEATHER SERVICE LITTLE ROCK AR
500 PM CDT TUE AUG 23 2016

NOTE: "FAIR" INDICATES FEW OR NO CLOUDS BELOW 12,000 FEET WITH NO
SIGNIFICANT WEATHER AND/OR OBSTRUCTIONS TO VISIBILITY.

ARZ001-003-010-029-232300-
NORTHWEST ARKANSAS

CITY           SKY/WX    TMP DP  RH WIND       PRES   REMARKS
FAYETTEVILLE   CLOUDY    84  72  67 S15G22    30.09F HX  89
FORT SMITH     SUNNY     89  67  47 S9G17     30.06F HX  92
HARRISON       CLOUDY    82  72  71 S10       30.13F HX  87
BENTONVILLE    CLOUDY    82  68  61 S9        30.09F HX  85
ROGERS         CLOUDY    83  72  69 SE8       30.10F HX  88
SILOAM SPGS    PTSUNNY   86  66  51 S15G24    30.09S HX  88
HIGHFILL       CLOUDY    85  71  63 S16       30.08F HX  90
SPRINGDALE     PTSUNNY   86  72  62 S12G17    30.11F HX  92
$$

ARZ004-005-016-232300-
NORTH CENTRAL ARKANSAS

CITY           SKY/WX    TMP DP  RH WIND       PRES   REMARKS
BATESVILLE     CLOUDY    90  73  58 S9        30.13S HX  98
FLIPPIN        MOSUNNY   86  70  58 S7        30.09F HX  90
MTN HOME       MOSUNNY   85  73  67 SW6       30.12F HX  91
$$

ARZ040-041-232300-
WEST CENTRAL ARKANSAS

CITY           SKY/WX    TMP DP  RH WIND       PRES   REMARKS
MENA           MOSUNNY   88  73  62 S5        30.13F HX  96
MOUNT IDA      MOSUNNY   87  71  58 SE6       30.11F HX  93
$$

ARZ009-017-025-026-028-232300-
NORTHEAST ARKANSAS

CITY           SKY/WX    TMP DP  RH WIND       PRES   REMARKS
CORNING          N/A     84  75  74 S9        30.14F HX  92
JONESBORO      MOSUNNY   86  73  65 SW10      30.13F HX  93
NEWPORT        MOSUNNY   88  75  65 S12       30.13F HX  97
WALNUT RIDGE   MOSUNNY   88  73  62 S12       30.12F HX  96
BLYTHEVILLE    SUNNY     87  76  69 S8        30.15F HX  97
NW BLYTHEVILLE PTSUNNY   88  75  66 S7        30.13F HX  97
$$

ARZ022-023-033-042-044-232300-
CENTRAL ARKANSAS

CITY           SKY/WX    TMP DP  RH WIND       PRES   REMARKS
LITTLE ROCK    PTSUNNY   91  73  55 S8        30.12F HX  99
N LITTLE ROCK    N/A     88  74  63 SW6       30.10F HX  97
SEARCY         SUNNY     90  76  63 S9        30.14F HX 101
HOT SPRINGS    MOSUNNY   89  72  56 S5        30.13F HX  96
RUSSELLVILLE   MOSUNNY   87  72  60 VRB5      30.10F HX  93
$$

ARZ036-232300-
EAST ARKANSAS

CITY           SKY/WX    TMP DP  RH WIND       PRES   REMARKS
WEST MEMPHIS   SUNNY     88  75  65 S7        30.13F HX  97
$$

ARZ050-053-066-070-073-232300-
SOUTHWEST ARKANSAS

CITY           SKY/WX    TMP DP  RH WIND       PRES   REMARKS
ARKADELPHIA    FAIR      90  76  63 S9        30.12F HX 101
CAMDEN         MOSUNNY   93  72  49 S7        30.12S HX 100
TEXARKANA      SUNNY     89  73  59 S10       30.11F HX  97
EL DORADO      SUNNY     91  73  55 SW7       30.13F HX  99
DE QUEEN       SUNNY     89  76  65 SE8G17    30.08F HX 100
$$

ARZ056-057-069-232300-
SOUTHEAST ARKANSAS

CITY           SKY/WX    TMP DP  RH WIND       PRES   REMARKS
PINE BLUFF     SUNNY     90  74  59 S9        30.13F HX  99
STUTTGART      PTSUNNY   90  72  55 S7        30.13F HX  96
MONTICELLO     MOSUNNY   94  74  52 S7        30.13F HX 104

$$





USA.gov is the U.S. government's official web portal to all federal, state and local government web resources and services.